• în România
  • Lista ţărilor
  • Pe 7 zile
  • Temperatura apei
  • Hartă satelitară
  • Meteo pe hartă
  • Widget-uri
  • user-avatar
    Intrare

    Meteo pe oră la Levokumka

    Astăzi, 26 Septembrie, Miercuri

    Timp Temperatura Precipitaţii Vânt Presiune Umiditate
    00:00 +18°C° 0.1 mm 4 m/s 738 mmHg 81%
    01:00 +17°C° 0.2 mm 4 m/s 738 mmHg 81%
    02:00 +17°C° 0.2 mm 4 m/s 738 mmHg 81%
    03:00 +14°C° 0 mm 4 m/s 739 mmHg 76%
    04:00 +13°C° 0.1 mm 4 m/s 739 mmHg 75%
    05:00 +13°C° 0.1 mm 4 m/s 739 mmHg 75%
    06:00 +13°C° 0.1 mm 3 m/s 740 mmHg 74%
    07:00 +13°C° 0.1 mm 3 m/s 740 mmHg 75%
    08:00 +12°C° 0.1 mm 3 m/s 740 mmHg 75%
    09:00 +13°C° 0.1 mm 2 m/s 741 mmHg 76%
    10:00 +13°C° 0.1 mm 2 m/s 741 mmHg 76%
    11:00 +14°C° 0.1 mm 2 m/s 741 mmHg 75%
    12:00 +14°C° 0.1 mm 2 m/s 741 mmHg 75%
    13:00 +14°C° 0.1 mm 2 m/s 741 mmHg 74%
    14:00 +14°C° 0.1 mm 2 m/s 742 mmHg 72%
    15:00 +14°C° 0.1 mm 2 m/s 742 mmHg 71%
    16:00 +14°C° 0 mm 1 m/s 742 mmHg 72%
    17:00 +14°C° 0 mm 1 m/s 742 mmHg 73%
    18:00 +13°C° 0 mm 1 m/s 742 mmHg 73%
    19:00 +13°C° 0.1 mm 1 m/s 742 mmHg 74%
    20:00 +13°C° 0.1 mm 1 m/s 743 mmHg 75%
    21:00 +13°C° 0.1 mm 1 m/s 743 mmHg 75%
    22:00 +13°C° 0 mm 1 m/s 743 mmHg 76%
    23:00 +13°C° 0 mm 1 m/s 743 mmHg 76%

    Mâine, 27 Septembrie, Joi

    Timp Temperatura Precipitaţii Vânt Presiune Umiditate
    00:00 +12°C° 0 mm 1 m/s 743 mmHg 76%
    01:00 +12°C° 0 mm 1 m/s 743 mmHg 77%
    02:00 +11°C° 0 mm 0 m/s 743 mmHg 78%
    03:00 +11°C° 0 mm 0 m/s 743 mmHg 78%
    04:00 +11°C° 0 mm 0 m/s 743 mmHg 79%
    05:00 +12°C° 0 mm 1 m/s 743 mmHg 79%
    06:00 +12°C° 0 mm 1 m/s 743 mmHg 80%
    07:00 +12°C° 0.1 mm 1 m/s 743 mmHg 77%
    08:00 +13°C° 0.1 mm 1 m/s 743 mmHg 74%
    09:00 +14°C° 0.1 mm 1 m/s 743 mmHg 70%
    10:00 +15°C° 0 mm 2 m/s 743 mmHg 65%
    11:00 +16°C° 0 mm 2 m/s 743 mmHg 60%
    12:00 +18°C° 0 mm 3 m/s 742 mmHg 55%
    13:00 +18°C° 0 mm 2 m/s 742 mmHg 54%
    14:00 +19°C° 0 mm 2 m/s 742 mmHg 52%
    15:00 +19°C° 0 mm 2 m/s 742 mmHg 51%
    16:00 +18°C° 0 mm 2 m/s 742 mmHg 56%
    17:00 +17°C° 0 mm 2 m/s 741 mmHg 61%
    18:00 +16°C° 0 mm 1 m/s 741 mmHg 65%
    19:00 +16°C° 0 mm 1 m/s 741 mmHg 68%
    20:00 +15°C° 0 mm 1 m/s 742 mmHg 72%
    21:00 +14°C° 0 mm 1 m/s 742 mmHg 75%
    22:00 +14°C° 0 mm 1 m/s 742 mmHg 76%
    23:00 +14°C° 0 mm 1 m/s 742 mmHg 77%

    Poimâine, 28 Septembrie, Vineri

    Timp Temperatura Precipitaţii Vânt Presiune Umiditate
    00:00 +14°C° 0 mm 1 m/s 742 mmHg 78%
    01:00 +13°C° 0 mm 1 m/s 742 mmHg 78%
    02:00 +13°C° 0 mm 1 m/s 742 mmHg 79%
    03:00 +13°C° 0 mm 1 m/s 742 mmHg 79%
    04:00 +13°C° 0 mm 1 m/s 742 mmHg 79%
    05:00 +12°C° 0 mm 1 m/s 742 mmHg 79%
    06:00 +11°C° 0 mm 0 m/s 742 mmHg 79%
    07:00 +14°C° 0 mm 1 m/s 741 mmHg 73%
    08:00 +15°C° 0 mm 1 m/s 741 mmHg 67%
    09:00 +18°C° 0 mm 1 m/s 741 mmHg 61%
    10:00 +19°C° 0 mm 2 m/s 741 mmHg 57%
    11:00 +20°C° 0 mm 3 m/s 741 mmHg 53%
    12:00 +22°C° 0 mm 3 m/s 740 mmHg 49%
    13:00 +22°C° 0 mm 3 m/s 740 mmHg 48%
    14:00 +22°C° 0 mm 4 m/s 740 mmHg 47%
    15:00 +23°C° 0 mm 4 m/s 739 mmHg 46%
    16:00 +21°C° 0 mm 3 m/s 739 mmHg 51%
    17:00 +20°C° 0 mm 3 m/s 739 mmHg 55%
    18:00 +19°C° 0 mm 2 m/s 738 mmHg 60%
    19:00 +18°C° 0 mm 2 m/s 738 mmHg 63%
    20:00 +17°C° 0 mm 2 m/s 738 mmHg 66%
    21:00 +17°C° 0 mm 2 m/s 738 mmHg 69%
    22:00 +16°C° 0 mm 2 m/s 738 mmHg 71%
    23:00 +16°C° 0 mm 2 m/s 738 mmHg 73%

    29 Septembrie, Sâmbătă

    Timp Temperatura Precipitaţii Vânt Presiune Umiditate
    00:00 +16°C° 0 mm 2 m/s 737 mmHg 76%
    01:00 +15°C° 0 mm 1 m/s 737 mmHg 78%
    02:00 +15°C° 0 mm 1 m/s 737 mmHg 80%
    03:00 +15°C° 0 mm 1 m/s 737 mmHg 82%
    04:00 +14°C° 0 mm 1 m/s 737 mmHg 83%
    05:00 +14°C° 0 mm 1 m/s 737 mmHg 84%
    06:00 +14°C° 0 mm 1 m/s 737 mmHg 85%
    07:00 +16°C° 0 mm 1 m/s 736 mmHg 80%
    08:00 +18°C° 0 mm 1 m/s 736 mmHg 75%
    09:00 +20°C° 0 mm 1 m/s 736 mmHg 70%
    10:00 +20°C° 0 mm 2 m/s 736 mmHg 66%
    11:00 +23°C° 0 mm 2 m/s 736 mmHg 62%
    12:00 +24°C° 0 mm 3 m/s 736 mmHg 58%
    13:00 +25°C° 0 mm 3 m/s 735 mmHg 56%
    14:00 +25°C° 0 mm 3 m/s 735 mmHg 54%
    15:00 +26°C° 0 mm 3 m/s 735 mmHg 52%
    16:00 +24°C° 0 mm 2 m/s 735 mmHg 58%
    17:00 +23°C° 0 mm 2 m/s 735 mmHg 63%
    18:00 +21°C° 0 mm 2 m/s 735 mmHg 69%
    19:00 +20°C° 0 mm 2 m/s 735 mmHg 72%
    20:00 +20°C° 0 mm 1 m/s 735 mmHg 75%
    21:00 +20°C° 0 mm 1 m/s 735 mmHg 78%
    22:00 +19°C° 0 mm 1 m/s 735 mmHg 78%
    23:00 +19°C° 0 mm 1 m/s 735 mmHg 78%

    30 Septembrie, Duminică

    Timp Temperatura Precipitaţii Vânt Presiune Umiditate
    00:00 +19°C° 0 mm 1 m/s 735 mmHg 78%
    01:00 +19°C° 0 mm 1 m/s 735 mmHg 77%
    02:00 +19°C° 0 mm 1 m/s 735 mmHg 76%
    03:00 +19°C° 0 mm 1 m/s 735 mmHg 75%
    04:00 +19°C° 0 mm 1 m/s 735 mmHg 75%
    05:00 +19°C° 0 mm 1 m/s 735 mmHg 75%
    06:00 +19°C° 0 mm 1 m/s 735 mmHg 74%
    07:00 +20°C° 0 mm 1 m/s 735 mmHg 69%
    08:00 +22°C° 0 mm 1 m/s 735 mmHg 64%
    09:00 +23°C° 0 mm 1 m/s 735 mmHg 59%
    10:00 +24°C° 0 mm 1 m/s 735 mmHg 55%
    11:00 +26°C° 0 mm 2 m/s 735 mmHg 51%
    12:00 +27°C° 0 mm 2 m/s 735 mmHg 47%
    13:00 +27°C° 0 mm 2 m/s 735 mmHg 46%
    14:00 +28°C° 0 mm 2 m/s 735 mmHg 45%
    15:00 +28°C° 0 mm 2 m/s 735 mmHg 44%
    16:00 +27°C° 0 mm 2 m/s 735 mmHg 48%
    17:00 +26°C° 0 mm 2 m/s 736 mmHg 53%
    18:00 +24°C° 0 mm 2 m/s 736 mmHg 58%
    19:00 +24°C° 0.2 mm 2 m/s 737 mmHg 61%
    20:00 +23°C° 0.2 mm 2 m/s 737 mmHg 64%
    21:00 +21°C° 0.2 mm 2 m/s 738 mmHg 67%
    22:00 +20°C° 0.4 mm 3 m/s 738 mmHg 68%
    23:00 +20°C° 0.4 mm 4 m/s 738 mmHg 70%

    1 Octombrie, Luni

    Timp Temperatura Precipitaţii Vânt Presiune Umiditate
    00:00 +19°C° 0.4 mm 4 m/s 738 mmHg 72%
    01:00 +18°C° 0 mm 4 m/s 738 mmHg 73%
    02:00 +17°C° 0 mm 4 m/s 738 mmHg 74%
    03:00 +16°C° 0 mm 5 m/s 738 mmHg 75%
    04:00 +15°C° 0 mm 5 m/s 738 mmHg 75%
    05:00 +14°C° 0 mm 5 m/s 738 mmHg 76%
    06:00 +14°C° 0 mm 5 m/s 738 mmHg 77%
    07:00 +15°C° 0 mm 5 m/s 738 mmHg 73%
    08:00 +15°C° 0 mm 6 m/s 738 mmHg 70%
    09:00 +16°C° 0 mm 6 m/s 738 mmHg 66%
    10:00 +17°C° 0 mm 6 m/s 738 mmHg 62%
    11:00 +20°C° 0 mm 7 m/s 738 mmHg 58%
    12:00 +21°C° 0 mm 7 m/s 738 mmHg 55%
    13:00 +21°C° 0 mm 7 m/s 737 mmHg 55%
    14:00 +22°C° 0 mm 7 m/s 737 mmHg 55%
    15:00 +22°C° 0 mm 8 m/s 737 mmHg 56%
    16:00 +21°C° 0 mm 7 m/s 737 mmHg 60%
    17:00 +20°C° 0 mm 7 m/s 737 mmHg 64%
    18:00 +18°C° 0 mm 7 m/s 737 mmHg 68%
    19:00 +18°C° 0 mm 7 m/s 737 mmHg 72%
    20:00 +17°C° 0 mm 7 m/s 737 mmHg 76%
    21:00 +16°C° 0 mm 7 m/s 737 mmHg 79%
    22:00 +16°C° 0 mm 7 m/s 737 mmHg 81%
    23:00 +16°C° 0 mm 7 m/s 737 mmHg 82%
    Arată mai mult